sat.trackr.live / text

‹ back to catalog

CAPELLA-18 (ACADIA-8)

NORAD 67385 · 2026-004Y

PAYLOAD ACTIVE UNKNOWN

§ Identity

Operator
Country
US
Launch date
2026-01-11
Launch site
AFWTR
Launch vehicle
Mass (kg)
RCS (m²)

External: N2YO · Heavens-Above · Gunter

§ Orbital elements

Epoch: 2026-05-24T23:42:44.479584Z

Period
96.86 min
Inclination
97.7970°
Eccentricity
0.0001908
Mean motion
14.86640635 rev/d
Perigee alt
607.1 km
Apogee alt
609.8 km
Semi-major
6,986.6 km
B*
1.6713e-4
RAAN
143.9332°
Arg perigee
105.1049°
Mean anomaly
255.0378°
Rev number
1,983

§ Raw data

CAPELLA-18 (ACADIA-8)1 67385U 26004Y   26144.98801481  .00001430  00000+0  16713-3 0  99952 67385  97.7970 143.9332 0001908 105.1049 255.0378 14.86640635 19837

JSON: /api/v1/satellites/67385 · /tle

For live sub-satellite position, see the globe view (requires WebGL).

§ Visibility from observer

Set your observer location to see the next 7 days of passes ≥ 10°. The values pass through the URL so the page stays shareable.

No JS? Fill the form by hand. The geolocation button needs JavaScript.